sat.trackr.live / text

‹ back to catalog

STARLINK-30998

NORAD 58513 · 2023-191F

PAYLOAD ACTIVE UNKNOWN

§ Identity

Operator
Country
US
Launch date
2023-12-07
Launch site
AFETR
Launch vehicle
Mass (kg)
RCS (m²)

Purposes: comms

External: N2YO · Heavens-Above · Gunter

§ Orbital elements

Epoch: 2026-09-20T21:55:48.698112Z

Period
94.27 min
Inclination
43.0021°
Eccentricity
0.0001289
Mean motion
15.27581393 rev/d
Perigee alt
482.2 km
Apogee alt
483.9 km
Semi-major
6,861.2 km
B*
3.0939e-5
RAAN
81.3114°
Arg perigee
268.3212°
Mean anomaly
91.7492°
Rev number
15,535

§ Raw data

STARLINK-309981 58513U 23191F   26263.91375808  .00000589  00000+0  30939-4 0  99972 58513  43.0021  81.3114 0001289 268.3212  91.7492 15.27581393155351

JSON: /api/v1/satellites/58513 · /tle

For live sub-satellite position, see the globe view (requires WebGL).

§ Visibility from observer

Set your observer location to see the next 7 days of passes ≥ 10°. The values pass through the URL so the page stays shareable.

No JS? Fill the form by hand. The geolocation button needs JavaScript.